Year,Month,Day,Hour,Minute,Value (Times are PST for temperature in C)
2012,09,18,00,00,12.90
2012,09,18,00,01,12.90
2012,09,18,00,02,12.90
2012,09,18,00,03,12.80
2012,09,18,00,04,12.80
2012,09,18,00,05,12.80
2012,09,18,00,06,12.80
2012,09,18,00,07,12.80
2012,09,18,00,08,12.80
2012,09,18,00,09,12.80
2012,09,18,00,10,12.80
2012,09,18,00,11,12.80
2012,09,18,00,12,12.70
2012,09,18,00,13,12.70
2012,09,18,00,14,12.70
2012,09,18,00,15,12.70
2012,09,18,00,16,12.60
2012,09,18,00,17,12.60
2012,09,18,00,18,12.60
2012,09,18,00,19,12.60
2012,09,18,00,20,12.60
2012,09,18,00,21,12.60
2012,09,18,00,22,12.60
2012,09,18,00,23,12.60
2012,09,18,00,24,12.60
2012,09,18,00,25,12.60
2012,09,18,00,26,12.60
2012,09,18,00,27,12.60
2012,09,18,00,28,12.60
2012,09,18,00,29,12.50
2012,09,18,00,30,12.50
2012,09,18,00,31,12.50
2012,09,18,00,32,12.50
2012,09,18,00,33,12.50
2012,09,18,00,34,12.40
2012,09,18,00,35,12.40
2012,09,18,00,36,12.40
2012,09,18,00,37,12.40
2012,09,18,00,38,12.30
2012,09,18,00,39,12.30
2012,09,18,00,40,12.30
2012,09,18,00,41,12.30
2012,09,18,00,42,12.30
2012,09,18,00,43,12.30
2012,09,18,00,44,12.30
2012,09,18,00,45,12.20
2012,09,18,00,46,12.20
2012,09,18,00,47,12.20
2012,09,18,00,48,12.20
2012,09,18,00,49,12.20
2012,09,18,00,50,12.20
2012,09,18,00,51,12.10
2012,09,18,00,52,12.10
2012,09,18,00,53,12.10
2012,09,18,00,54,12.10
2012,09,18,00,55,12.10
2012,09,18,00,56,12.10
2012,09,18,00,57,12.00
2012,09,18,00,58,12.00
2012,09,18,00,59,12.00
2012,09,18,01,00,12.00
2012,09,18,01,01,11.90
2012,09,18,01,02,11.90
2012,09,18,01,03,11.90
2012,09,18,01,04,11.90
2012,09,18,01,05,11.90
2012,09,18,01,06,11.80
2012,09,18,01,07,11.80
2012,09,18,01,08,11.80
2012,09,18,01,09,11.80
2012,09,18,01,10,11.80
2012,09,18,01,11,11.80
2012,09,18,01,12,11.80
2012,09,18,01,13,11.80
2012,09,18,01,14,11.70
2012,09,18,01,15,11.70
2012,09,18,01,16,11.70
2012,09,18,01,17,11.70
2012,09,18,01,18,11.70
2012,09,18,01,19,11.70
2012,09,18,01,20,11.70
2012,09,18,01,21,11.70
2012,09,18,01,22,11.70
2012,09,18,01,23,11.60
2012,09,18,01,24,11.60
2012,09,18,01,25,11.60
2012,09,18,01,26,11.60
2012,09,18,01,27,11.60
2012,09,18,01,28,11.60
2012,09,18,01,29,11.60
2012,09,18,01,30,11.60
2012,09,18,01,31,11.60
2012,09,18,01,32,11.60
2012,09,18,01,33,11.60
2012,09,18,01,34,11.60
2012,09,18,01,35,11.50
2012,09,18,01,36,11.40
2012,09,18,01,37,11.40
2012,09,18,01,38,11.40
2012,09,18,01,39,11.40
2012,09,18,01,40,11.40
2012,09,18,01,41,11.40
2012,09,18,01,42,11.40
2012,09,18,01,43,11.40
2012,09,18,01,44,11.30
2012,09,18,01,45,11.30
2012,09,18,01,46,11.30
2012,09,18,01,47,11.30
2012,09,18,01,48,11.20
2012,09,18,01,49,11.20
2012,09,18,01,50,11.20
2012,09,18,01,51,11.20
2012,09,18,01,52,11.20
2012,09,18,01,53,11.20
2012,09,18,01,54,11.20
2012,09,18,01,55,11.20
2012,09,18,01,56,11.20
2012,09,18,01,57,11.10
2012,09,18,01,58,11.10
2012,09,18,01,59,11.10
2012,09,18,02,00,11.10
2012,09,18,02,01,11.10
2012,09,18,02,02,11.10
2012,09,18,02,03,11.10
2012,09,18,02,04,11.10
2012,09,18,02,05,11.10
2012,09,18,02,06,11.10
2012,09,18,02,07,11.10
2012,09,18,02,08,11.20
2012,09,18,02,09,11.20
2012,09,18,02,10,11.20
2012,09,18,02,11,11.20
2012,09,18,02,12,11.30
2012,09,18,02,13,11.30
2012,09,18,02,14,11.30
2012,09,18,02,15,11.40
2012,09,18,02,16,11.40
2012,09,18,02,17,11.40
2012,09,18,02,18,11.40
2012,09,18,02,19,11.40
2012,09,18,02,20,11.40
2012,09,18,02,21,11.40
2012,09,18,02,22,11.40
2012,09,18,02,23,11.40
2012,09,18,02,24,11.40
2012,09,18,02,25,11.40
2012,09,18,02,26,11.40
2012,09,18,02,27,11.40
2012,09,18,02,28,11.40
2012,09,18,02,29,11.40
2012,09,18,02,30,11.30
2012,09,18,02,31,11.30
2012,09,18,02,32,11.30
2012,09,18,02,33,11.30
2012,09,18,02,34,11.30
2012,09,18,02,35,11.20
2012,09,18,02,36,11.20
2012,09,18,02,37,11.20
2012,09,18,02,38,11.20
2012,09,18,02,39,11.20
2012,09,18,02,40,11.20
2012,09,18,02,41,11.10
2012,09,18,02,42,11.10
2012,09,18,02,43,11.10
2012,09,18,02,44,11.10
2012,09,18,02,45,11.10
2012,09,18,02,46,11.10
2012,09,18,02,47,11.10
2012,09,18,02,48,11.10
2012,09,18,02,49,11.00
2012,09,18,02,50,10.90
2012,09,18,02,51,10.90
2012,09,18,02,52,10.90
2012,09,18,02,53,10.90
2012,09,18,02,54,10.90
2012,09,18,02,55,10.90
2012,09,18,02,56,10.90
2012,09,18,02,57,10.80
2012,09,18,02,58,10.80
2012,09,18,02,59,10.80
2012,09,18,03,00,10.80
2012,09,18,03,01,10.80
2012,09,18,03,02,10.80
2012,09,18,03,03,10.80
2012,09,18,03,04,10.80
2012,09,18,03,05,10.80
2012,09,18,03,06,10.80
2012,09,18,03,07,10.80
2012,09,18,03,08,10.80
2012,09,18,03,09,10.70
2012,09,18,03,10,10.70
2012,09,18,03,11,10.70
2012,09,18,03,12,10.70
2012,09,18,03,13,10.70
2012,09,18,03,14,10.70
2012,09,18,03,15,10.70
2012,09,18,03,16,10.70
2012,09,18,03,17,10.70
2012,09,18,03,18,10.70
2012,09,18,03,19,10.70
2012,09,18,03,20,10.70
2012,09,18,03,21,10.80
2012,09,18,03,22,10.80
2012,09,18,03,23,10.80
2012,09,18,03,24,10.70
2012,09,18,03,25,10.70
2012,09,18,03,26,10.70
2012,09,18,03,27,10.70
2012,09,18,03,28,10.70
2012,09,18,03,29,10.70
2012,09,18,03,30,10.70
2012,09,18,03,31,10.70
2012,09,18,03,32,10.70
2012,09,18,03,33,10.70
2012,09,18,03,34,10.70
2012,09,18,03,35,10.70
2012,09,18,03,36,10.60
2012,09,18,03,37,10.60
2012,09,18,03,38,10.60
2012,09,18,03,39,10.60
2012,09,18,03,40,10.60
2012,09,18,03,41,10.60
2012,09,18,03,42,10.60
2012,09,18,03,43,10.60
2012,09,18,03,44,10.60
2012,09,18,03,45,10.70
2012,09,18,03,46,10.70
2012,09,18,03,47,10.70
2012,09,18,03,48,10.70
2012,09,18,03,49,10.80
2012,09,18,03,50,10.80
2012,09,18,03,51,10.80
2012,09,18,03,52,10.80
2012,09,18,03,53,10.80
2012,09,18,03,54,10.80
2012,09,18,03,55,10.70
2012,09,18,03,56,10.70
2012,09,18,03,57,10.70
2012,09,18,03,58,10.70
2012,09,18,03,59,10.60
2012,09,18,04,00,10.60
2012,09,18,04,01,10.60
2012,09,18,04,02,10.60
2012,09,18,04,03,10.60
2012,09,18,04,04,10.60
2012,09,18,04,05,10.50
2012,09,18,04,06,10.40
2012,09,18,04,07,10.40
2012,09,18,04,08,10.40
2012,09,18,04,09,10.40
2012,09,18,04,10,10.40
2012,09,18,04,11,10.40
2012,09,18,04,12,10.40
2012,09,18,04,13,10.40
2012,09,18,04,14,10.40
2012,09,18,04,15,10.40
2012,09,18,04,16,10.40
2012,09,18,04,17,10.40
2012,09,18,04,18,10.40
2012,09,18,04,19,10.40
2012,09,18,04,20,10.30
2012,09,18,04,21,10.30
2012,09,18,04,22,10.30
2012,09,18,04,23,10.30
2012,09,18,04,24,10.30
2012,09,18,04,25,10.30
2012,09,18,04,26,10.30
2012,09,18,04,27,10.30
2012,09,18,04,28,10.30
2012,09,18,04,29,10.30
2012,09,18,04,30,10.30
2012,09,18,04,31,10.40
2012,09,18,04,32,10.30
2012,09,18,04,33,10.30
2012,09,18,04,34,10.30
2012,09,18,04,35,10.30
2012,09,18,04,36,10.30
2012,09,18,04,37,10.30
2012,09,18,04,38,10.30
2012,09,18,04,39,10.20
2012,09,18,04,40,10.20
2012,09,18,04,41,10.20
2012,09,18,04,42,10.20
2012,09,18,04,43,10.20
2012,09,18,04,44,10.20
2012,09,18,04,45,10.20
2012,09,18,04,46,10.20
2012,09,18,04,47,10.20
2012,09,18,04,48,10.30
2012,09,18,04,49,10.30
2012,09,18,04,50,10.30
2012,09,18,04,51,10.30
2012,09,18,04,52,10.20
2012,09,18,04,53,10.20
2012,09,18,04,54,10.20
2012,09,18,04,55,10.20
2012,09,18,04,56,10.10
2012,09,18,04,57,10.10
2012,09,18,04,58,10.10
2012,09,18,04,59,10.10
2012,09,18,05,00,10.10
2012,09,18,05,01,10.10
2012,09,18,05,02,10.00
2012,09,18,05,03,9.90
2012,09,18,05,04,9.90
2012,09,18,05,05,9.90
2012,09,18,05,06,9.90
2012,09,18,05,07,9.90
2012,09,18,05,08,9.90
2012,09,18,05,09,9.90
2012,09,18,05,10,9.80
2012,09,18,05,11,9.80
2012,09,18,05,12,9.80
2012,09,18,05,13,9.80
2012,09,18,05,14,9.80
2012,09,18,05,15,9.70
2012,09,18,05,16,9.70
2012,09,18,05,17,9.70
2012,09,18,05,18,9.70
2012,09,18,05,19,9.70
2012,09,18,05,20,9.70
2012,09,18,05,21,9.70
2012,09,18,05,22,9.70
2012,09,18,05,23,9.70
2012,09,18,05,24,9.70
2012,09,18,05,25,9.70
2012,09,18,05,26,9.70
2012,09,18,05,27,9.70
2012,09,18,05,28,9.70
2012,09,18,05,29,9.70
2012,09,18,05,30,9.70
2012,09,18,05,31,9.70
2012,09,18,05,32,9.70
2012,09,18,05,33,9.70
2012,09,18,05,34,9.70
2012,09,18,05,35,9.70
2012,09,18,05,36,9.70
2012,09,18,05,37,9.70
2012,09,18,05,38,9.80
2012,09,18,05,39,9.80
2012,09,18,05,40,9.90
2012,09,18,05,41,9.90
2012,09,18,05,42,9.90
2012,09,18,05,43,9.90
2012,09,18,05,44,9.80
2012,09,18,05,45,9.80
2012,09,18,05,46,9.80
2012,09,18,05,47,9.80
2012,09,18,05,48,9.70
2012,09,18,05,49,9.70
2012,09,18,05,50,9.70
2012,09,18,05,51,9.70
2012,09,18,05,52,9.70
2012,09,18,05,53,9.60
2012,09,18,05,54,9.60
2012,09,18,05,55,9.60
2012,09,18,05,56,9.60
2012,09,18,05,57,9.60
2012,09,18,05,58,9.60
2012,09,18,05,59,9.60
2012,09,18,06,00,9.50
2012,09,18,06,01,9.50
2012,09,18,06,02,9.50
2012,09,18,06,03,9.50
2012,09,18,06,04,9.40
2012,09,18,06,05,9.40
2012,09,18,06,06,9.40
2012,09,18,06,07,9.40
2012,09,18,06,08,9.40
2012,09,18,06,09,9.40
2012,09,18,06,10,9.40
2012,09,18,06,11,9.40
2012,09,18,06,12,9.30
2012,09,18,06,13,9.30
2012,09,18,06,14,9.30
2012,09,18,06,15,9.30
2012,09,18,06,16,9.30
2012,09,18,06,17,9.30
2012,09,18,06,18,9.20
2012,09,18,06,19,9.20
2012,09,18,06,20,9.20
2012,09,18,06,21,9.20
2012,09,18,06,22,9.20
2012,09,18,06,23,9.20
2012,09,18,06,24,9.20
2012,09,18,06,25,9.20
2012,09,18,06,26,9.20
2012,09,18,06,27,9.20
2012,09,18,06,28,9.20
2012,09,18,06,29,9.20
2012,09,18,06,30,9.20
2012,09,18,06,31,9.20
2012,09,18,06,32,9.10
2012,09,18,06,33,9.10
2012,09,18,06,34,9.10
2012,09,18,06,35,9.10
2012,09,18,06,36,9.10
2012,09,18,06,37,9.00
2012,09,18,06,38,9.00
2012,09,18,06,39,9.00
2012,09,18,06,40,9.00
2012,09,18,06,41,9.00
2012,09,18,06,42,9.00
2012,09,18,06,43,9.00
2012,09,18,06,44,9.00
2012,09,18,06,45,9.00
2012,09,18,06,46,9.00
2012,09,18,06,47,9.00
2012,09,18,06,48,9.00
2012,09,18,06,49,9.00
2012,09,18,06,50,9.00
2012,09,18,06,51,9.00
2012,09,18,06,52,9.00
2012,09,18,06,53,9.00
2012,09,18,06,54,9.00
2012,09,18,06,55,9.00
2012,09,18,06,56,9.00
2012,09,18,06,57,8.90
2012,09,18,06,58,8.90
2012,09,18,06,59,8.90
2012,09,18,07,00,8.90
2012,09,18,07,01,8.90
2012,09,18,07,02,8.90
2012,09,18,07,03,8.90
2012,09,18,07,04,8.90
2012,09,18,07,05,9.00
2012,09,18,07,06,9.00
2012,09,18,07,07,9.00
2012,09,18,07,08,9.00
2012,09,18,07,09,9.00
2012,09,18,07,10,9.10
2012,09,18,07,11,9.10
2012,09,18,07,12,9.10
2012,09,18,07,13,9.10
2012,09,18,07,14,9.10
2012,09,18,07,15,9.10
2012,09,18,07,16,9.10
2012,09,18,07,17,9.10
2012,09,18,07,18,9.20
2012,09,18,07,19,9.20
2012,09,18,07,20,9.20
2012,09,18,07,21,9.20
2012,09,18,07,22,9.20
2012,09,18,07,23,9.20
2012,09,18,07,24,9.20
2012,09,18,07,25,9.20
2012,09,18,07,26,9.20
2012,09,18,07,27,9.20
2012,09,18,07,28,9.20
2012,09,18,07,29,9.30
2012,09,18,07,30,9.30
2012,09,18,07,31,9.30
2012,09,18,07,32,9.40
2012,09,18,07,33,9.40
2012,09,18,07,34,9.40
2012,09,18,07,35,9.50
2012,09,18,07,36,9.50
2012,09,18,07,37,9.60
2012,09,18,07,38,9.60
2012,09,18,07,39,9.70
2012,09,18,07,40,9.70
2012,09,18,07,41,9.70
2012,09,18,07,42,9.70
2012,09,18,07,43,9.80
2012,09,18,07,44,9.80
2012,09,18,07,45,9.90
2012,09,18,07,46,9.90
2012,09,18,07,47,9.90
2012,09,18,07,48,9.90
2012,09,18,07,49,10.00
2012,09,18,07,50,10.10
2012,09,18,07,51,10.10
2012,09,18,07,52,10.20
2012,09,18,07,53,10.20
2012,09,18,07,54,10.30
2012,09,18,07,55,10.40
2012,09,18,07,56,10.50
2012,09,18,07,57,10.60
2012,09,18,07,58,10.60
2012,09,18,07,59,10.70
2012,09,18,08,00,10.90
2012,09,18,08,01,10.90
2012,09,18,08,02,11.00
2012,09,18,08,03,11.10
2012,09,18,08,04,11.10
2012,09,18,08,05,11.20
2012,09,18,08,06,11.20
2012,09,18,08,07,11.30
2012,09,18,08,08,11.30
2012,09,18,08,09,11.30
2012,09,18,08,10,11.40
2012,09,18,08,11,11.40
2012,09,18,08,12,11.50
2012,09,18,08,13,11.60
2012,09,18,08,14,11.60
2012,09,18,08,15,11.70
2012,09,18,08,16,11.80
2012,09,18,08,17,11.80
2012,09,18,08,18,11.90
2012,09,18,08,19,12.00
2012,09,18,08,20,12.10
2012,09,18,08,21,12.20
2012,09,18,08,22,12.30
2012,09,18,08,23,12.40
2012,09,18,08,24,12.60
2012,09,18,08,25,12.70
2012,09,18,08,26,12.80
2012,09,18,08,27,13.00
2012,09,18,08,28,13.20
2012,09,18,08,29,13.30
2012,09,18,08,30,13.50
2012,09,18,08,31,13.60
2012,09,18,08,32,13.70
2012,09,18,08,33,13.80
2012,09,18,08,34,14.00
2012,09,18,08,35,14.10
2012,09,18,08,36,14.20
2012,09,18,08,37,14.20
2012,09,18,08,38,14.30
2012,09,18,08,39,14.40
2012,09,18,08,40,14.60
2012,09,18,08,41,14.60
2012,09,18,08,42,14.80
2012,09,18,08,43,14.90
2012,09,18,08,44,15.00
2012,09,18,08,45,15.10
2012,09,18,08,46,15.20
2012,09,18,08,47,15.30
2012,09,18,08,48,15.50
2012,09,18,08,49,15.60
2012,09,18,08,50,15.70
2012,09,18,08,51,15.80
2012,09,18,08,52,15.90
2012,09,18,08,53,16.10
2012,09,18,08,54,16.20
2012,09,18,08,55,16.30
2012,09,18,08,56,16.40
2012,09,18,08,57,16.50
2012,09,18,08,58,16.60
2012,09,18,08,59,16.70
2012,09,18,09,00,16.70
2012,09,18,09,01,16.80
2012,09,18,09,02,16.80
2012,09,18,09,03,16.80
2012,09,18,09,04,16.90
2012,09,18,09,05,16.90
2012,09,18,09,06,16.90
2012,09,18,09,07,16.90
2012,09,18,09,08,16.90
2012,09,18,09,09,17.00
2012,09,18,09,10,17.00
2012,09,18,09,11,17.00
2012,09,18,09,12,17.10
2012,09,18,09,13,17.10
2012,09,18,09,14,17.20
2012,09,18,09,15,17.20
2012,09,18,09,16,17.20
2012,09,18,09,17,17.30
2012,09,18,09,18,17.30
2012,09,18,09,19,17.40
2012,09,18,09,20,17.50
2012,09,18,09,21,17.70
2012,09,18,09,22,17.80
2012,09,18,09,23,17.90
2012,09,18,09,24,18.00
2012,09,18,09,25,18.10
2012,09,18,09,26,18.20
2012,09,18,09,27,18.30
2012,09,18,09,28,18.40
2012,09,18,09,29,18.40
2012,09,18,09,30,18.50
2012,09,18,09,31,18.50
2012,09,18,09,32,18.50
2012,09,18,09,33,18.50
2012,09,18,09,34,18.40
2012,09,18,09,35,18.30
2012,09,18,09,36,18.20
2012,09,18,09,37,18.20
2012,09,18,09,38,18.20
2012,09,18,09,39,18.20
2012,09,18,09,40,18.20
2012,09,18,09,41,18.20
2012,09,18,09,42,18.20
2012,09,18,09,43,18.20
2012,09,18,09,44,18.20
2012,09,18,09,45,18.30
2012,09,18,09,46,18.40
2012,09,18,09,47,18.40
2012,09,18,09,48,18.50
2012,09,18,09,49,18.50
2012,09,18,09,50,18.50
2012,09,18,09,51,18.50
2012,09,18,09,52,18.60
2012,09,18,09,53,18.60
2012,09,18,09,54,18.70
2012,09,18,09,55,18.80
2012,09,18,09,56,18.80
2012,09,18,09,57,18.90
2012,09,18,09,58,18.90
2012,09,18,09,59,19.00
2012,09,18,10,00,19.10
2012,09,18,10,01,19.20
2012,09,18,10,02,19.20
2012,09,18,10,03,19.40
2012,09,18,10,04,19.50
2012,09,18,10,05,19.50
2012,09,18,10,06,19.60
2012,09,18,10,07,19.70
2012,09,18,10,08,19.90
2012,09,18,10,09,19.90
2012,09,18,10,10,20.00
2012,09,18,10,11,20.10
2012,09,18,10,12,20.10
2012,09,18,10,13,20.20
2012,09,18,10,14,20.20
2012,09,18,10,15,20.30
2012,09,18,10,16,20.30
2012,09,18,10,17,20.40
2012,09,18,10,18,20.40
2012,09,18,10,19,20.50
2012,09,18,10,20,20.50
2012,09,18,10,21,20.50
2012,09,18,10,22,20.60
2012,09,18,10,23,20.60
2012,09,18,10,24,20.70
2012,09,18,10,25,20.80
2012,09,18,10,26,20.80
2012,09,18,10,27,20.70
2012,09,18,10,28,20.70
2012,09,18,10,29,20.60
2012,09,18,10,30,20.50
2012,09,18,10,31,20.50
2012,09,18,10,32,20.50
2012,09,18,10,33,20.40
2012,09,18,10,34,20.30
2012,09,18,10,35,20.20
2012,09,18,10,36,20.20
2012,09,18,10,37,20.20
2012,09,18,10,38,20.20
2012,09,18,10,39,20.20
2012,09,18,10,40,20.30
2012,09,18,10,41,20.40
2012,09,18,10,42,20.50
2012,09,18,10,43,20.60
2012,09,18,10,44,20.60
2012,09,18,10,45,20.60
2012,09,18,10,46,20.60
2012,09,18,10,47,20.60
2012,09,18,10,48,20.50
2012,09,18,10,49,20.50
2012,09,18,10,50,20.40
2012,09,18,10,51,20.30
2012,09,18,10,52,20.30
2012,09,18,10,53,20.40
2012,09,18,10,54,20.40
2012,09,18,10,55,20.50
2012,09,18,10,56,20.50
2012,09,18,10,57,20.60
2012,09,18,10,58,20.80
2012,09,18,10,59,20.80
2012,09,18,11,00,20.90
2012,09,18,11,01,20.90
2012,09,18,11,02,20.80
2012,09,18,11,03,20.80
2012,09,18,11,04,20.90
2012,09,18,11,05,20.80
2012,09,18,11,06,20.90
2012,09,18,11,07,21.00
2012,09,18,11,08,21.00
2012,09,18,11,09,21.00
2012,09,18,11,10,21.00
2012,09,18,11,11,21.00
2012,09,18,11,12,21.00
2012,09,18,11,13,21.10
2012,09,18,11,14,21.20
2012,09,18,11,15,21.30
2012,09,18,11,16,21.40
2012,09,18,11,17,21.40
2012,09,18,11,18,21.40
2012,09,18,11,19,21.30
2012,09,18,11,20,21.30
2012,09,18,11,21,21.20
2012,09,18,11,22,21.20
2012,09,18,11,23,21.20
2012,09,18,11,24,21.40
2012,09,18,11,25,21.50
2012,09,18,11,26,21.60
2012,09,18,11,27,21.60
2012,09,18,11,28,21.60
2012,09,18,11,29,21.60
2012,09,18,11,30,21.60
2012,09,18,11,31,21.70
2012,09,18,11,32,21.70
2012,09,18,11,33,21.70
2012,09,18,11,34,21.70
2012,09,18,11,35,21.80
2012,09,18,11,36,21.90
2012,09,18,11,37,22.00
2012,09,18,11,38,22.10
2012,09,18,11,39,22.10
2012,09,18,11,40,22.00
2012,09,18,11,41,22.00
2012,09,18,11,42,22.00
2012,09,18,11,43,22.00
2012,09,18,11,44,22.00
2012,09,18,11,45,22.00
2012,09,18,11,46,22.00
2012,09,18,11,47,22.00
2012,09,18,11,48,22.10
2012,09,18,11,49,22.20
2012,09,18,11,50,22.30
2012,09,18,11,51,22.30
2012,09,18,11,52,22.30
2012,09,18,11,53,22.40
2012,09,18,11,54,22.40
2012,09,18,11,55,22.30
2012,09,18,11,56,22.30
2012,09,18,11,57,22.40
2012,09,18,11,58,22.40
2012,09,18,11,59,22.50
2012,09,18,12,00,22.50
2012,09,18,12,01,22.60
2012,09,18,12,02,22.60
2012,09,18,12,03,22.70
2012,09,18,12,04,22.70
2012,09,18,12,05,22.70
2012,09,18,12,06,22.80
2012,09,18,12,07,22.80
2012,09,18,12,08,22.70
2012,09,18,12,09,22.70
2012,09,18,12,10,22.60
2012,09,18,12,11,22.40
2012,09,18,12,12,22.20
2012,09,18,12,13,22.10
2012,09,18,12,14,22.10
2012,09,18,12,15,22.10
2012,09,18,12,16,22.10
2012,09,18,12,17,22.20
2012,09,18,12,18,22.20
2012,09,18,12,19,22.10
2012,09,18,12,20,22.10
2012,09,18,12,21,22.20
2012,09,18,12,22,22.30
2012,09,18,12,23,22.30
2012,09,18,12,24,22.30
2012,09,18,12,25,22.30
2012,09,18,12,26,22.20
2012,09,18,12,27,22.20
2012,09,18,12,28,22.30
2012,09,18,12,29,22.40
2012,09,18,12,30,22.60
2012,09,18,12,31,22.50
2012,09,18,12,32,22.50
2012,09,18,12,33,22.50
2012,09,18,12,34,22.50
2012,09,18,12,35,22.60
2012,09,18,12,36,22.70
2012,09,18,12,37,22.70
2012,09,18,12,38,22.90
2012,09,18,12,39,22.90
2012,09,18,12,40,22.90
2012,09,18,12,41,22.90
2012,09,18,12,42,22.90
2012,09,18,12,43,23.00
2012,09,18,12,44,23.10
2012,09,18,12,45,23.20
2012,09,18,12,46,23.10
2012,09,18,12,47,23.10
2012,09,18,12,48,23.00
2012,09,18,12,49,22.90
2012,09,18,12,50,23.00
2012,09,18,12,51,23.20
2012,09,18,12,52,23.30
2012,09,18,12,53,23.30
2012,09,18,12,54,23.30
2012,09,18,12,55,23.40
2012,09,18,12,56,23.50
2012,09,18,12,57,23.60
2012,09,18,12,58,23.70
2012,09,18,12,59,23.60
2012,09,18,13,00,23.70
2012,09,18,13,01,23.70
2012,09,18,13,02,23.70
2012,09,18,13,03,23.70
2012,09,18,13,04,23.70
2012,09,18,13,05,23.70
2012,09,18,13,06,23.70
2012,09,18,13,07,23.70
2012,09,18,13,08,23.70
2012,09,18,13,09,23.70
2012,09,18,13,10,23.80
2012,09,18,13,11,24.00
2012,09,18,13,12,24.10
2012,09,18,13,13,24.30
2012,09,18,13,14,24.30
2012,09,18,13,15,24.30
2012,09,18,13,16,24.40
2012,09,18,13,17,24.40
2012,09,18,13,18,24.40
2012,09,18,13,19,24.50
2012,09,18,13,20,24.50
2012,09,18,13,21,24.50
2012,09,18,13,22,24.40
2012,09,18,13,23,24.40
2012,09,18,13,24,24.30
2012,09,18,13,25,24.30
2012,09,18,13,26,24.30
2012,09,18,13,27,24.30
2012,09,18,13,28,24.20
2012,09,18,13,29,24.20
2012,09,18,13,30,24.20
2012,09,18,13,31,24.10
2012,09,18,13,32,24.10
2012,09,18,13,33,24.30
2012,09,18,13,34,24.40
2012,09,18,13,35,24.40
2012,09,18,13,36,24.30
2012,09,18,13,37,24.20
2012,09,18,13,38,24.20
2012,09,18,13,39,24.20
2012,09,18,13,40,24.20
2012,09,18,13,41,24.20
2012,09,18,13,42,24.20
2012,09,18,13,43,24.20
2012,09,18,13,44,24.10
2012,09,18,13,45,24.10
2012,09,18,13,46,24.10
2012,09,18,13,47,24.10
2012,09,18,13,48,24.20
2012,09,18,13,49,24.20
2012,09,18,13,50,24.20
2012,09,18,13,51,24.20
2012,09,18,13,52,24.30
2012,09,18,13,53,24.40
2012,09,18,13,54,24.60
2012,09,18,13,55,24.60
2012,09,18,13,56,24.70
2012,09,18,13,57,24.80
2012,09,18,13,58,24.90
2012,09,18,13,59,25.00
2012,09,18,14,00,25.00
2012,09,18,14,01,25.00
2012,09,18,14,02,25.00
2012,09,18,14,03,24.90
2012,09,18,14,04,24.90
2012,09,18,14,05,24.80
2012,09,18,14,06,24.80
2012,09,18,14,07,24.80
2012,09,18,14,08,24.80
2012,09,18,14,09,24.80
2012,09,18,14,10,24.70
2012,09,18,14,11,24.70
2012,09,18,14,12,24.70
2012,09,18,14,13,24.80
2012,09,18,14,14,24.80
2012,09,18,14,15,24.90
2012,09,18,14,16,25.00
2012,09,18,14,17,25.10
2012,09,18,14,18,25.00
2012,09,18,14,19,25.00
2012,09,18,14,20,25.10
2012,09,18,14,21,25.20
2012,09,18,14,22,25.20
2012,09,18,14,23,25.40
2012,09,18,14,24,25.50
2012,09,18,14,25,25.60
2012,09,18,14,26,25.60
2012,09,18,14,27,25.60
2012,09,18,14,28,25.60
2012,09,18,14,29,25.70
2012,09,18,14,30,25.70
2012,09,18,14,31,25.70
2012,09,18,14,32,25.70
2012,09,18,14,33,25.70
2012,09,18,14,34,25.70
2012,09,18,14,35,25.70
2012,09,18,14,36,25.70
2012,09,18,14,37,25.60
2012,09,18,14,38,25.60
2012,09,18,14,39,25.50
2012,09,18,14,40,25.40
2012,09,18,14,41,25.50
2012,09,18,14,42,25.50
2012,09,18,14,43,25.60
2012,09,18,14,44,25.60
2012,09,18,14,45,25.70
2012,09,18,14,46,25.70
2012,09,18,14,47,25.80
2012,09,18,14,48,25.90
2012,09,18,14,49,25.90
2012,09,18,14,50,25.90
2012,09,18,14,51,25.90
2012,09,18,14,52,25.80
2012,09,18,14,53,25.70
2012,09,18,14,54,25.50
2012,09,18,14,55,25.30
2012,09,18,14,56,25.20
2012,09,18,14,57,25.10
2012,09,18,14,58,25.20
2012,09,18,14,59,25.30
2012,09,18,15,00,25.30
2012,09,18,15,01,25.30
2012,09,18,15,02,25.40
2012,09,18,15,03,25.40
2012,09,18,15,04,25.30
2012,09,18,15,05,25.30
2012,09,18,15,06,25.30
2012,09,18,15,07,25.20
2012,09,18,15,08,25.10
2012,09,18,15,09,24.90
2012,09,18,15,10,24.90
2012,09,18,15,11,24.90
2012,09,18,15,12,24.80
2012,09,18,15,13,24.80
2012,09,18,15,14,24.70
2012,09,18,15,15,24.70
2012,09,18,15,16,24.60
2012,09,18,15,17,24.50
2012,09,18,15,18,24.50
2012,09,18,15,19,24.60
2012,09,18,15,20,24.70
2012,09,18,15,21,24.70
2012,09,18,15,22,24.80
2012,09,18,15,23,24.90
2012,09,18,15,24,25.00
2012,09,18,15,25,25.10
2012,09,18,15,26,25.10
2012,09,18,15,27,25.10
2012,09,18,15,28,25.10
2012,09,18,15,29,25.10
2012,09,18,15,30,25.00
2012,09,18,15,31,24.90
2012,09,18,15,32,24.90
2012,09,18,15,33,25.00
2012,09,18,15,34,25.10
2012,09,18,15,35,25.10
2012,09,18,15,36,25.20
2012,09,18,15,37,25.20
2012,09,18,15,38,25.30
2012,09,18,15,39,25.40
2012,09,18,15,40,25.50
2012,09,18,15,41,25.70
2012,09,18,15,42,25.80
2012,09,18,15,43,25.80
2012,09,18,15,44,25.70
2012,09,18,15,45,25.50
2012,09,18,15,46,25.30
2012,09,18,15,47,25.20
2012,09,18,15,48,25.10
2012,09,18,15,49,25.10
2012,09,18,15,50,25.00
2012,09,18,15,51,25.00
2012,09,18,15,52,25.00
2012,09,18,15,53,25.00
2012,09,18,15,54,25.00
2012,09,18,15,55,24.90
2012,09,18,15,56,24.90
2012,09,18,15,57,25.00
2012,09,18,15,58,25.00
2012,09,18,15,59,25.00
2012,09,18,16,00,25.10
2012,09,18,16,01,25.10
2012,09,18,16,02,25.20
2012,09,18,16,03,25.20
2012,09,18,16,04,25.20
2012,09,18,16,05,25.20
2012,09,18,16,06,25.20
2012,09,18,16,07,25.30
2012,09,18,16,08,25.30
2012,09,18,16,09,25.30
2012,09,18,16,10,25.20
2012,09,18,16,11,25.20
2012,09,18,16,12,25.10
2012,09,18,16,13,25.10
2012,09,18,16,14,25.10
2012,09,18,16,15,25.10
2012,09,18,16,16,25.00
2012,09,18,16,17,24.90
2012,09,18,16,18,24.90
2012,09,18,16,19,24.90
2012,09,18,16,20,24.90
2012,09,18,16,21,24.80
2012,09,18,16,22,24.70
2012,09,18,16,23,24.60
2012,09,18,16,24,24.60
2012,09,18,16,25,24.60
2012,09,18,16,26,24.60
2012,09,18,16,27,24.60
2012,09,18,16,28,24.60
2012,09,18,16,29,24.70
2012,09,18,16,30,24.70
2012,09,18,16,31,24.70
2012,09,18,16,32,24.70
2012,09,18,16,33,24.70
2012,09,18,16,34,24.70
2012,09,18,16,35,24.70
2012,09,18,16,36,24.70
2012,09,18,16,37,24.70
2012,09,18,16,38,24.70
2012,09,18,16,39,24.80
2012,09,18,16,40,24.70
2012,09,18,16,41,24.70
2012,09,18,16,42,24.70
2012,09,18,16,43,24.70
2012,09,18,16,44,24.70
2012,09,18,16,45,24.70
2012,09,18,16,46,24.80
2012,09,18,16,47,24.80
2012,09,18,16,48,24.80
2012,09,18,16,49,24.80
2012,09,18,16,50,24.90
2012,09,18,16,51,24.90
2012,09,18,16,52,25.00
2012,09,18,16,53,25.10
2012,09,18,16,54,25.10
2012,09,18,16,55,25.10
2012,09,18,16,56,25.10
2012,09,18,16,57,25.10
2012,09,18,16,58,25.00
2012,09,18,16,59,25.00
2012,09,18,17,00,24.90
2012,09,18,17,01,24.80
2012,09,18,17,02,24.70
2012,09,18,17,03,24.60
2012,09,18,17,04,24.60
2012,09,18,17,05,24.50
2012,09,18,17,06,24.50
2012,09,18,17,07,24.50
2012,09,18,17,08,24.50
2012,09,18,17,09,24.50
2012,09,18,17,10,24.50
2012,09,18,17,11,24.40
2012,09,18,17,12,24.40
2012,09,18,17,13,24.30
2012,09,18,17,14,24.30
2012,09,18,17,15,24.20
2012,09,18,17,16,24.10
2012,09,18,17,17,24.10
2012,09,18,17,18,24.10
2012,09,18,17,19,24.10
2012,09,18,17,20,24.10
2012,09,18,17,21,24.10
2012,09,18,17,22,24.00
2012,09,18,17,23,23.80
2012,09,18,17,24,23.80
2012,09,18,17,25,23.70
2012,09,18,17,26,23.70